Find Starlink 35672

NORAD ID: 66394 Int'l Des: 2025-257 Owner: SPXS Country: US Constellation: starlink operational
LEOCIRCULAR

現在のビュー

3D地球を読み込み中...

About Starlink 35672

Starlink 35672 (NORAD 66394) is a starlink constellation satellite (v2 mini) launched Nov 9, 2025 by SPXS of US. It operates in LEO, CIRCULAR orbit with a mass of 575.00 kg.

次回通過

Passes for default location (London). Set your location on the main map for personalized predictions.

高度履歴

Loading altitude history...

軌道要素

1 66394U 25257Q 26264.82064615 .00022959 00000-0 68833-3 0 9999
2 66394 53.1613 21.6443 0001098 72.7099 287.4024 15.34411224 49828
Epoch: Sep 21, 2026 • Age: 8 hours

現在のステータス

高度 468.1 km
遠地点 / 近地点 N/A
速度 7.64 km/s
衛星直下点 51.26°N, 71.38°E
打ち上げ日 Nov 9, 2025
運用期間 0.8 years
タイプ internet

技術仕様

分類 Payload
質量 575.00 kg
乾燥質量 530.00 kg
長さ 0.30 m
スパン 29.00 m
形状 ? Box + pan
製造者 SPXS
バスタイプ Starlink V2MO
フェーズステータス In Orbit
所有者/国 SPXS/US

Most Searched